Miscellaneous Local Product
Issued by NWS Hastings, NE

Home | Current Version | Previous Version | Text Only | Print | Product List | Glossary Off
Versions: 1 2 3 4 5 6 7 8 9 10 11 12 13 14 15 16 17 18 19 20 21 22 23 24 25 26 27 28 29 30 31 32 33 34 35 36 37 38 39 40 41 42 43 44 45 46 47 48 49 50

000
AXUS43 KGID 200602
MISGRI

GID CWA HOURLY WEATHER ROUNDUP
NATIONAL WEATHER SERVICE HASTINGS NE
1200 AM CST TUE FEB 20 2018

NOTE: "FAIR" INDICATES FEW OR NO CLOUDS BELOW 12,000 FEET WITH NO
SIGNIFICANT WEATHER AND/OR OBSTRUCTIONS TO VISIBILITY.

...SOUTH CENTRAL NEBRASKA...

CITY           SKY/WX    TMP DP  RH WIND       PRES   REMARKS
GRAND ISLAND   FLURRIES  14  10  84 N14       29.88R WCI  -1
KEARNEY        FLURRIES  12   8  84 N14       29.89R WCI  -3
HASTINGS       CLOUDY    14  10  84 N15       29.87R WCI  -1
ORD            LGT SNOW  11   7  84 NW18      29.88R FOG     WCI  -7
YORK           CLOUDY    18  18 100 N9        29.86S WCI   6
AURORA         CLOUDY    15  12  88 N12       29.87R WCI   2
LEXINGTON      FLURRIES  12   7  80 N15       29.88R WCI  -4
HOLDREGE       FLURRIES  12  10  89 N13G20    29.87R WCI  -3
HEBRON         CLOUDY    20  19  93 N10       29.86F FOG     WCI   9

...NEBRASKA PANHANDLE...

CITY           SKY/WX    TMP DP  RH WIND       PRES   REMARKS
CHADRON        CLOUDY     0  -5  79 N9        29.96S WCI -15
ALLIANCE       LGT SNOW  -2  -6  83 N12       29.84F FOG     WCI -20
SCOTTSBLUFF    CLOUDY     0  -6  76 N9        29.88R HAZE    WCI -15
SIDNEY         LGT SNOW   0  -5  79 N15       29.81R VSB 3/4 WCI -19

...WESTERN AND NORTH CENTRAL NEBRASKA...

CITY           SKY/WX    TMP DP  RH WIND       PRES   REMARKS
VALENTINE      LGT SNOW   5  -1  76 N10       29.93R VSB 1   WCI -10
AINSWORTH      LGT SNOW   6   2  86 N20       29.89F WCI -14
ONEILL         LGT SNOW   9   6  89 N20       29.88S WCI -10
BROKEN BOW     LGT SNOW  10   5  80 N14       29.86R WCI  -6
IMPERIAL       FLURRIES   7   3  84 N16       29.87R WCI -11
NORTH PLATTE   LGT SNOW   7   2  80 N12       29.90R VSB 1   WCI  -8
MCCOOK         CLOUDY    11   7  84 N13       29.89R WCI  -4

...EASTERN NEBRASKA...

CITY           SKY/WX    TMP DP  RH WIND       PRES   REMARKS
NORFOLK        LGT SNOW  15  13  91 N8G20     29.84S FOG     WCI   4
SO SIOUX CITY  CLOUDY    18  16  92 N13       29.84F WCI   5
TEKAMAH        CLOUDY    20  17  88 N16       29.85S WCI   6
COLUMBUS       FLURRIES  17  15  92 N12       29.87S WCI   4
ALBION         LGT SNOW  14  11  86 N13       29.84F WCI   0
OMAHA EPPLEY   TSTM      23  21  92 NW6       29.85S WCI  16
OFFUTT AFB     HAIL      23  20  91 N5        29.82F FOG     WCI  17
MILLARD        CLOUDY    24  21  90 NW6       29.84F WCI  17
LINCOLN        LGT SNOW  21  19  92 N10       29.88R VSB 3/4 WCI  10
NEBRASKA CITY  CLOUDY    24  24 100 NW7       29.85R FOG     WCI  15
BEATRICE       CLOUDY    23  21  93 N9        29.83F WCI  13
FALLS CITY     CLOUDY    24  23  96 N7        29.83S FOG     WCI  16

...NORTHERN KANSAS...

CITY           SKY/WX    TMP DP  RH WIND       PRES   REMARKS
GOODLAND       LGT SNOW  10   7  87 N15G28    29.78R FOG     WCI  -7
HILL CITY      LGT SNOW  16  13  88 N13       29.88R FOG     WCI   2
NORTON         FLURRIES  12   7  79 N12       29.86F WCI  -2
PHILLIPSBURG   FLURRIES  18  12  79 NW15      29.90R WCI   3
SMITH CENTER   CLOUDY    16  12  86 N10       29.88R WCI   3
BELOIT         CLOUDY    18  16  93 N12       29.87S FOG     WCI   5
HAYS           LGT SNOW  19  17  92 N16       29.85R FOG     WCI   4
RUSSELL        CLOUDY    20  18  92 N15       29.83R FOG     WCI   6
CONCORDIA      CLOUDY    19  17  92 N13       29.84S WCI   6
SALINA         CLOUDY    24  22  91 N13       29.83F FOG     WCI  12
TOPEKA         CLOUDY    28  27  96 N8        29.81F FOG     WCI  20



USA.gov is the U.S. government's official web portal to all federal, state and local government web resources and services.